Погода в Рудовке

Россия / Тамбовская область     53°06′20″N   42°23′42″E
темп.,
°C
ветер,
м/с
пор.,
м/с
влажн.,
%
обл.,
%
осадки,
мм/ч
давл.,
гПа
погр.,
м
8 марта, пн
пн800:00−2зюз111795100 1.0 9981060
03:00−6з7158088 1.3 1000435
06:00−8зюз512903 0.0 1001240
09:00−5юз5129017 0.0 1001475
12:00−3зюз8128373 0.1 10011361
15:00−4з7118986 0.3 10021075
18:00−8зсз4108559 0.1 1005186
21:00−11зсз348829 0.1 100837
9 марта, вт
вт900:00−13з23900 0.0 100920
03:00−15з23930 0.0 101020
06:00−16зсз23960 0.0 101120
09:00−13ссз239636 0.1 1011139
12:00−10ссз3493100 0.1 1012354
15:00−9сз4689100 0.1 1013659
18:00−13сз4895100 0.1 1014148
21:00−14сз4996100 0.1 1017238
10 марта, ср
ср1000:00−16сз4897100 0.1 1018193
03:00−20сз4710099 0.1 1020130
06:00−22сз48100100 0.0 1021168
09:00−21сз5898100 0.1 1023270
12:00−18сз4792100 0.0 1024432
15:00−17сз5789100 0.1 1025616
18:00−20сз4896100 0.0 1026176
21:00−23сз449882 0.1 102860
11 марта, чт
чт1100:00−24сз349924 0.0 102950
03:00−24сз349612 0.0 103048
06:00−25зсз34990 0.0 103156
09:00−21сз469848 0.0 1032212
12:00−17сз359384 0.0 1031301
15:00−14зсз368871 0.0 1031397
18:00−17зсз34920 0.0 103156
21:00−19зсз34980 0.0 103244
12 марта, пт
пт1200:00−19зсз33970 0.0 103327
03:00−20з23960 0.0 103320
06:00−20зюз22930 0.0 103420
09:00−17юз23900 0.0 103497
12:00−13ю45830 0.0 1033243
15:00−12ююз488510 0.0 1032370
18:00−14ю41091100 0.0 1030238
21:00−13ю61389100 0.0 1030314